Location: Asheville, NC
(35.6000°N, 82.5500°W)
Time: 01:29:07
(UTC-05:00)

Vanguard 1 - Pass Details

Date: 14 December 2017
Orbit: 649 x 3834 km, 34.3° (Epoch: 20 January)

Event Time Altitude Azimuth Distance (km) Brightness Sun altitude
Rises 15:32:44 0° 284° (WNW) 5,960 14.5 16.3°
Reaches altitude 10° 15:37:45 10° 277° (W) 4,385 14.0 15.6°
Maximum altitude 15:46:58 34° 219° (SW) 1,989 13.3 14.2°
Drops below altitude 10° 15:52:37 10° 155° (SSE) 2,647 12.6 13.4°
Sets 15:54:54 0° 145° (SE) 3,364 12.9 13.0°
